User: anonymous   Login
Location: Fort Wayne
(41.1310°N, 85.1290°W)
Time: 07:21:19
(UTC-05:00)
Language:

CZ-2C R/B - Orbit

View from above orbital plane
View from above orbital plane
View from above satellite
View from above satellite

Ground track
Ground track

The orbit data is extracted from the following two-line orbital elements,

1 36089U 09061B   15027.56931943  .00000214  00000-0  65038-4 0  5424
2 36089 098.0840 056.5287 0082140 208.3047 313.7259 14.49346057275444
Epoch (UTC): 27 January 2015 13:39:49
Eccentricity: 0.0082140
inclination: 98.0840°
perigee height: 669 km
apogee height: 786 km
right ascension of ascending node: 56.5287°
argument of perigee: 208.3047°
revolutions per day: 14.49346057
mean anomaly at epoch: 313.7259°
orbit number at epoch: 27544

The dashed part of the orbit path shows where the satellite is in the earth's shadow,  

DLR